Starlink 33647

operational
NORAD ID: 63411 Int'l Des: 2025-065 Owner: SPXS Country: US Constellation: starlink
LEOCIRCULAR

Über Starlink 33647

Beschreibung wird geladen...

Live-Position

3D-Globus wird geladen...

Nächste Überflüge

Höhenverlauf

Altitude vs Time

uPlot chart will show altitude changes over time

Zweizeiliger Elementsatz

1 63411U 25065N 25346.98910668 .00005582 00000-0 21229-3 0 9999
2 63411 43.0011 244.2118 0001805 272.2706 87.7939 15.27567888 39493
Epoch: 12. Dez. 2025 • Age: 16 hours

Aktueller Status

Höhe 482.6 km
Geschwindigkeit 7.63 km/s
Subsatellitenpunkt 16.86°N, 56.33°W
Startdatum 31. März 2025
Alter 0.7 years
Typ internet

Technische Details

Klassifizierung Payload
Masse 575.00 kg
Trockenmasse 530.00 kg
Gesamtmasse 575.00 kg
Länge 0.30 m
Durchmesser 4.10 m
Spannweite 29.00 m
Form Box + pan
Hersteller SPXS
Bus-Typ Starlink V2MO
Phasenstatus In Orbit
Besitzer/Staat SPXS/US

Große Konstellationen

Loading constellations...